| time (UTC) | temp F | wind direction | speed knots | gust knots | rain 1hr in | rain 24hr in | rain mn in | humidity % | barometer mb |
| 20260510162326 | 76 | 107 | 1.7 | 13.0 | 0.00 | 0.04 | 0.01 | 57 | 1009.8 |
| 20260510161821 | 76 | 189 | 0.0 | 13.0 | 0.00 | 0.04 | 0.01 | 62 | 1009.7 |
| 20260510161332 | 76 | 65 | 2.6 | 10.4 | 0.00 | 0.04 | 0.01 | 58 | 1009.9 |
| 20260510160825 | 77 | 189 | 4.3 | 7.0 | 0.00 | 0.04 | 0.01 | 58 | 1010.0 |
| 20260510160329 | 77 | 192 | 0.0 | 7.0 | 0.00 | 0.04 | 0.01 | 58 | 1010.0 |
| 20260510155822 | 76 | 186 | 0.9 | 8.7 | 0.00 | 0.04 | 0.01 | 56 | 1010.1 |
| 20260510155333 | 76 | 188 | 1.7 | 5.2 | 0.00 | 0.04 | 0.01 | 56 | 1010.2 |
| 20260510154826 | 76 | 173 | 1.7 | 12.2 | 0.00 | 0.04 | 0.01 | 59 | 1010.0 |
| 20260510154337 | 75 | 243 | 1.7 | 12.2 | 0.00 | 0.04 | 0.01 | 58 | 1009.9 |
| 20260510153832 | 75 | 144 | 1.7 | 11.3 | 0.00 | 0.04 | 0.01 | 64 | 1010.2 |
| 20260510153325 | 75 | 232 | 2.6 | 8.7 | 0.00 | 0.04 | 0.01 | 64 | 1010.3 |
| 20260510152821 | 76 | 97 | 3.5 | 7.0 | 0.00 | 0.04 | 0.01 | 62 | 1010.3 |
| 20260510152332 | 76 | 82 | 0.9 | 7.0 | 0.00 | 0.04 | 0.01 | 63 | 1010.2 |
| 20260510151822 | 76 | 130 | 2.6 | 11.3 | 0.00 | 0.04 | 0.01 | 62 | 1010.3 |
| 20260510151333 | 76 | 135 | 2.6 | 11.3 | 0.00 | 0.04 | 0.01 | 61 | 1010.3 |
| 20260510150827 | 76 | 77 | 1.7 | 13.0 | 0.00 | 0.04 | 0.01 | 63 | 1010.3 |
| 20260510150320 | 75 | 40 | 2.6 | 13.0 | 0.00 | 0.04 | 0.01 | 63 | 1010.3 |
| 20260510145835 | 75 | 86 | 1.7 | 6.1 | 0.00 | 0.04 | 0.01 | 63 | 1010.5 |
| 20260510145328 | 76 | 89 | 2.6 | 6.1 | 0.00 | 0.04 | 0.01 | 61 | 1010.6 |
| 20260510144819 | 76 | 164 | 2.6 | 8.7 | 0.00 | 0.04 | 0.01 | 61 | 1010.5 |
| 20260510144332 | 76 | 199 | 1.7 | 7.0 | 0.00 | 0.04 | 0.01 | 63 | 1010.5 |
| 20260510143826 | 76 | 315 | 1.7 | 4.3 | 0.00 | 0.04 | 0.01 | 64 | 1010.6 |
| 20260510143337 | 76 | 72 | 0.9 | 7.8 | 0.00 | 0.04 | 0.01 | 64 | 1010.7 |
| 20260510142827 | 76 | 102 | 0.9 | 7.8 | 0.00 | 0.04 | 0.01 | 64 | 1010.8 |
| 20260510142338 | 76 | 146 | 0.9 | 5.2 | 0.00 | 0.04 | 0.01 | 63 | 1010.8 |
| 20260510141832 | 75 | 146 | 1.7 | 10.4 | 0.00 | 0.04 | 0.01 | 63 | 1010.9 |
| 20260510141323 | 75 | 186 | 4.3 | 11.3 | 0.00 | 0.04 | 0.01 | 62 | 1011.1 |
| 20260510140832 | 75 | 190 | 2.6 | 11.3 | 0.00 | 0.04 | 0.01 | 62 | 1011.0 |
| 20260510140326 | 75 | 215 | 3.5 | 11.3 | 0.00 | 0.04 | 0.01 | 62 | 1011.0 |
| 20260510135839 | 75 | 244 | 3.5 | 12.2 | 0.00 | 0.35 | 0.01 | 62 | 1011.1 |
| 20260510135330 | 76 | 122 | 6.1 | 12.2 | 0.00 | 0.35 | 0.01 | 60 | 1011.0 |
| 20260510134820 | 76 | 157 | 5.2 | 13.0 | 0.00 | 0.35 | 0.01 | 60 | 1011.1 |
| 20260510134332 | 76 | 174 | 1.7 | 11.3 | 0.00 | 0.35 | 0.01 | 59 | 1011.2 |
| 20260510133826 | 76 | 101 | 1.7 | 9.6 | 0.00 | 0.35 | 0.01 | 61 | 1011.1 |
| 20260510133336 | 76 | 136 | 3.5 | 8.7 | 0.00 | 0.35 | 0.01 | 59 | 1011.2 |
| 20260510132340 | 75 | 209 | 3.5 | 9.6 | 0.00 | 0.35 | 0.01 | 62 | 1011.4 |
| 20260510131828 | 75 | 234 | 1.7 | 9.6 | 0.00 | 0.35 | 0.01 | 63 | 1011.5 |
| 20260510131321 | 75 | 217 | 3.5 | 9.6 | 0.00 | 0.35 | 0.01 | 63 | 1011.6 |
| 20260510130832 | 74 | 105 | 2.6 | 11.3 | 0.00 | 0.35 | 0.01 | 62 | 1011.7 |
| 20260510130326 | 74 | 151 | 1.7 | 10.4 | 0.00 | 0.35 | 0.01 | 63 | 1011.7 |
| 20260510125822 | 74 | 182 | 2.6 | 10.4 | 0.00 | 0.47 | 0.01 | 65 | 1011.9 |
| 20260510125333 | 74 | 219 | 3.5 | 10.4 | 0.00 | 0.47 | 0.01 | 65 | 1012.1 |
| 20260510124826 | 74 | 180 | 4.3 | 10.4 | 0.00 | 0.47 | 0.01 | 65 | 1012.2 |
| 20260510124323 | 74 | 144 | 5.2 | 13.0 | 0.00 | 0.47 | 0.01 | 64 | 1012.2 |
| 20260510123832 | 75 | 138 | 5.2 | 13.0 | 0.00 | 0.47 | 0.01 | 62 | 1012.2 |
| 20260510123326 | 75 | 69 | 2.6 | 10.4 | 0.00 | 0.47 | 0.01 | 63 | 1012.2 |
| 20260510122839 | 75 | 64 | 3.5 | 11.3 | 0.00 | 0.47 | 0.01 | 60 | 1012.3 |
| 20260510122329 | 76 | 175 | 2.6 | 7.0 | 0.00 | 0.47 | 0.01 | 58 | 1012.2 |
| 20260510121827 | 76 | 64 | 1.7 | 8.7 | 0.00 | 0.47 | 0.01 | 60 | 1012.1 |
| 20260510121320 | 76 | 26 | 1.7 | 12.2 | 0.00 | 0.47 | 0.01 | 60 | 1012.2 |
| 20260510120831 | 76 | 111 | 4.3 | 12.2 | 0.00 | 0.47 | 0.01 | 57 | 1012.1 |
| 20260510120321 | 76 | 107 | 0.9 | 10.4 | 0.00 | 0.47 | 0.01 | 59 | 1012.1 |
| 20260510115832 | 76 | 73 | 2.6 | 10.4 | 0.00 | 1.50 | 0.01 | 58 | 1012.2 |
| 20260510115322 | 77 | 56 | 2.6 | 9.6 | 0.00 | 1.50 | 0.01 | 57 | 1012.1 |
| 20260510114813 | 77 | 76 | 1.7 | 9.6 | 0.00 | 1.50 | 0.01 | 56 | 1012.2 |
| 20260510114330 | 77 | 59 | 3.5 | 9.6 | 0.00 | 1.50 | 0.01 | 55 | 1012.2 |
| 20260510113824 | 78 | 76 | 2.6 | 7.0 | 0.00 | 1.50 | 0.01 | 53 | 1012.2 |
| 20260510113334 | 78 | 69 | 2.6 | 7.0 | 0.00 | 1.50 | 0.01 | 54 | 1012.3 |
| 20260510112828 | 78 | 30 | 0.9 | 6.1 | 0.00 | 1.50 | 0.01 | 53 | 1012.3 |
| 20260510112318 | 77 | 130 | 0.9 | 7.8 | 0.00 | 1.50 | 0.01 | 53 | 1012.4 |
| 20260510111832 | 77 | 67 | 1.7 | 7.8 | 0.00 | 1.50 | 0.01 | 54 | 1012.3 |
| 20260510111322 | 77 | 80 | 2.6 | 7.8 | 0.00 | 1.50 | 0.01 | 53 | 1012.4 |
| 20260510110832 | 77 | 67 | 0.9 | 4.3 | 0.00 | 1.50 | 0.01 | 54 | 1012.5 |
| 20260510110328 | 77 | 66 | 1.7 | 4.3 | 0.00 | 1.50 | 0.01 | 55 | 1012.6 |
| 20260510105827 | 77 | 67 | 0.9 | 5.2 | 0.00 | 3.03 | 0.01 | 59 | 1012.7 |
| 20260510105320 | 76 | 39 | 0.9 | 5.2 | 0.00 | 3.03 | 0.01 | 57 | 1012.9 |
| 20260510104833 | 76 | 62 | 1.7 | 6.1 | 0.00 | 3.03 | 0.01 | 58 | 1013.0 |
| 20260510104327 | 76 | 80 | 0.9 | 6.1 | 0.00 | 3.03 | 0.01 | 60 | 1013.1 |
| 20260510103837 | 76 | 80 | 0.9 | 7.0 | 0.00 | 3.03 | 0.01 | 59 | 1013.2 |
| 20260510102838 | 76 | 61 | 2.6 | 7.0 | 0.00 | 3.03 | 0.01 | 59 | 1013.3 |
| 20260510102328 | 76 | 58 | 1.7 | 6.1 | 0.00 | 3.03 | 0.01 | 57 | 1013.4 |
| 20260510101829 | 76 | 61 | 1.7 | 5.2 | 0.00 | 3.03 | 0.01 | 60 | 1013.3 |
| 20260510101326 | 75 | 61 | 0.9 | 7.8 | 0.00 | 3.03 | 0.01 | 58 | 1013.4 |
| 20260510100819 | 75 | 71 | 2.6 | 11.3 | 0.00 | 3.03 | 0.01 | 62 | 1013.4 |
| 20260510100322 | 75 | 75 | 4.3 | 11.3 | 0.00 | 3.03 | 0.01 | 60 | 1013.5 |
| 20260510095836 | 75 | 43 | 1.7 | 6.1 | 0.00 | 3.62 | 0.01 | 60 | 1013.5 |
| 20260510095327 | 75 | 5 | 2.6 | 7.8 | 0.00 | 3.62 | 0.01 | 60 | 1013.5 |
| 20260510094817 | 75 | 16 | 1.7 | 5.2 | 0.00 | 3.62 | 0.01 | 62 | 1013.7 |
| 20260510094331 | 75 | 16 | 2.6 | 6.1 | 0.00 | 3.62 | 0.01 | 60 | 1013.6 |
| 20260510093825 | 75 | 14 | 1.7 | 6.1 | 0.00 | 3.62 | 0.01 | 59 | 1013.8 |
| 20260510093322 | 75 | 26 | 2.6 | 5.2 | 0.00 | 3.62 | 0.01 | 59 | 1013.8 |
| 20260510092832 | 74 | 28 | 0.9 | 4.3 | 0.00 | 3.62 | 0.01 | 60 | 1013.8 |
| 20260510092323 | 74 | 10 | 1.7 | 7.8 | 0.00 | 3.62 | 0.01 | 61 | 1013.9 |
| 20260510091833 | 74 | 5 | 1.7 | 7.8 | 0.00 | 3.62 | 0.01 | 61 | 1013.8 |
| 20260510091331 | 74 | 360 | 1.7 | 7.0 | 0.00 | 3.62 | 0.01 | 58 | 1013.8 |
| 20260510090820 | 74 | 288 | 1.7 | 6.1 | 0.00 | 3.62 | 0.01 | 58 | 1013.9 |
| 20260510090331 | 74 | 208 | 1.7 | 4.3 | 0.00 | 3.62 | 0.01 | 59 | 1013.9 |
| 20260510085826 | 74 | 214 | 1.7 | 4.3 | 0.00 | 3.86 | 0.01 | 60 | 1013.9 |
| 20260510085336 | 74 | 214 | 0.9 | 4.3 | 0.00 | 3.86 | 0.01 | 60 | 1013.9 |
| 20260510084827 | 73 | 212 | 0.9 | 3.5 | 0.00 | 3.86 | 0.01 | 60 | 1013.9 |
| 20260510084337 | 73 | 209 | 0.0 | 3.5 | 0.00 | 3.86 | 0.01 | 59 | 1013.9 |
| 20260510083828 | 72 | 209 | 0.9 | 3.5 | 0.00 | 3.86 | 0.01 | 60 | 1013.8 |
| 20260510083321 | 71 | 209 | 0.0 | 2.6 | 0.00 | 3.86 | 0.01 | 63 | 1013.9 |
| 20260510082832 | 71 | 209 | 0.9 | 3.5 | 0.00 | 3.86 | 0.01 | 67 | 1013.9 |
| 20260510082322 | 70 | 209 | 1.7 | 3.5 | 0.00 | 3.86 | 0.01 | 69 | 1013.9 |
| 20260510081817 | 70 | 209 | 0.9 | 2.6 | 0.00 | 3.86 | 0.01 | 71 | 1014.0 |
| 20260510081327 | 69 | 209 | 0.9 | 2.6 | 0.00 | 3.86 | 0.01 | 72 | 1013.9 |
| 20260510080818 | 68 | 209 | 0.9 | 2.6 | 0.00 | 3.86 | 0.01 | 74 | 1013.9 |
| 20260510080332 | 67 | 209 | 0.0 | 1.7 | 0.00 | 3.86 | 0.01 | 74 | 1013.9 |
| 20260510075825 | 67 | 209 | 0.0 | 1.7 | 0.00 | 4.02 | 0.01 | 73 | 1014.1 |
| 20260510075336 | 66 | 210 | 0.0 | 1.7 | 0.00 | 4.02 | 0.01 | 75 | 1014.2 |
| 20260510074825 | 65 | 210 | 0.0 | 1.7 | 0.00 | 4.02 | 0.01 | 77 | 1014.2 |
| 20260510074319 | 64 | 210 | 0.0 | 1.7 | 0.00 | 4.02 | 0.01 | 80 | 1014.2 |
| 20260510073816 | 64 | 210 | 0.0 | 0.9 | 0.00 | 4.02 | 0.01 | 81 | 1014.2 |
| 20260510073331 | 63 | 210 | 0.0 | 1.7 | 0.00 | 4.02 | 0.01 | 82 | 1014.3 |
| 20260510072822 | 62 | 210 | 0.0 | 0.9 | 0.00 | 4.02 | 0.01 | 82 | 1014.3 |
| 20260510072332 | 62 | 210 | 0.0 | 0.9 | 0.00 | 4.02 | 0.01 | 83 | 1014.3 |
| 20260510071826 | 62 | 210 | 0.0 | 0.0 | 0.00 | 4.02 | 0.01 | 84 | 1014.3 |
| 20260510071319 | 61 | 210 | 0.0 | 0.0 | 0.00 | 4.02 | 0.01 | 84 | 1014.3 |
| 20260510070830 | 61 | 210 | 0.0 | 0.0 | 0.00 | 4.02 | 0.01 | 84 | 1014.2 |
| 20260510070320 | 60 | 210 | 0.0 | 0.0 | 0.00 | 4.02 | 0.01 | 84 | 1014.1 |
| 20260510065831 | 59 | 210 | 0.0 | 0.0 | 0.00 | 4.96 | 0.01 | 84 | 1014.1 |
| 20260510065328 | 59 | 210 | 0.0 | 1.7 | 0.00 | 4.96 | 0.01 | 84 | 1014.0 |
| 20260510064825 | 58 | 210 | 0.9 | 1.7 | 0.00 | 4.96 | 0.01 | 84 | 1014.0 |
| 20260510064336 | 58 | 210 | 0.0 | 0.0 | 0.00 | 4.96 | 0.01 | 84 | 1013.9 |
| 20260510063826 | 58 | 210 | 0.0 | 0.0 | 0.00 | 4.96 | 0.01 | 84 | 1013.9 |
| 20260510063337 | 57 | 210 | 0.0 | 0.0 | 0.00 | 4.96 | 0.01 | 84 | 1013.9 |
| 20260510062829 | 57 | 210 | 0.0 | 0.0 | 0.00 | 4.96 | 0.01 | 84 | 1013.8 |
| 20260510062323 | 57 | 210 | 0.0 | 0.0 | 0.00 | 4.96 | 0.01 | 84 | 1013.8 |
| 20260510061836 | 57 | 210 | 0.0 | 0.0 | 0.00 | 4.96 | 0.01 | 84 | 1013.8 |
| 20260510061331 | 56 | 210 | 0.0 | 0.0 | 0.00 | 4.96 | 0.01 | 84 | 1013.8 |
| 20260510060821 | 56 | 210 | 0.0 | 0.0 | 0.00 | 4.96 | 0.01 | 84 | 1013.7 |
| 20260510060332 | 56 | 210 | 0.0 | 0.0 | 0.00 | 4.96 | 0.01 | 84 | 1013.7 |
| 20260510055826 | 56 | 210 | 0.0 | 0.0 | 0.00 | 4.96 | 0.01 | 84 | 1013.7 |
| 20260510055336 | 56 | 210 | 0.0 | 0.0 | 0.00 | 4.96 | 0.01 | 84 | 1013.7 |
| 20260510054827 | 56 | 210 | 0.0 | 0.0 | 0.00 | 4.96 | 0.01 | 84 | 1013.6 |
| 20260510054340 | 55 | 210 | 0.0 | 0.0 | 0.00 | 4.96 | 0.01 | 84 | 1013.6 |
| 20260510053831 | 55 | 210 | 0.0 | 0.0 | 0.00 | 4.96 | 0.01 | 84 | 1013.5 |
| 20260510053325 | 55 | 210 | 0.0 | 0.0 | 0.00 | 4.96 | 0.01 | 84 | 1013.5 |
| 20260510052819 | 55 | 210 | 0.0 | 1.7 | 0.00 | 4.96 | 0.01 | 84 | 1013.4 |
| 20260510052332 | 55 | 210 | 0.0 | 1.7 | 0.00 | 4.96 | 0.01 | 84 | 1013.4 |
| 20260510051825 | 55 | 210 | 0.0 | 1.7 | 0.00 | 4.96 | 0.01 | 84 | 1013.4 |
| 20260510051335 | 55 | 210 | 0.0 | 0.9 | 0.00 | 4.96 | 0.01 | 84 | 1013.4 |
| 20260510050830 | 55 | 210 | 0.0 | 0.9 | 0.00 | 4.96 | 0.01 | 84 | 1013.4 |
| 20260510050321 | 55 | 210 | 0.0 | 0.0 | 0.00 | 4.96 | 0.01 | 84 | 1013.3 |
| 20260510045831 | 55 | 210 | 0.0 | 0.0 | 0.00 | 4.96 | 0.01 | 85 | 1013.2 |
| 20260510045325 | 55 | 210 | 0.0 | 0.0 | 0.00 | 4.96 | 0.01 | 85 | 1013.3 |
| 20260510044815 | 55 | 210 | 0.0 | 0.9 | 0.00 | 4.96 | 0.01 | 84 | 1013.2 |
| 20260510044332 | 55 | 210 | 0.0 | 0.9 | 0.00 | 4.96 | 0.01 | 84 | 1013.2 |
| 20260510043825 | 55 | 210 | 0.0 | 0.9 | 0.00 | 4.96 | 0.01 | 84 | 1013.1 |
| 20260510043336 | 55 | 210 | 0.0 | 0.0 | 0.00 | 4.96 | 0.01 | 84 | 1013.2 |
| 20260510042830 | 55 | 210 | 0.0 | 0.0 | 0.00 | 4.96 | 0.01 | 84 | 1013.1 |
| 20260510042322 | 55 | 210 | 0.0 | 0.9 | 0.00 | 4.96 | 0.01 | 85 | 1013.2 |
| 20260510041820 | 55 | 210 | 0.0 | 0.9 | 0.00 | 4.96 | 0.01 | 84 | 1013.2 |
| 20260510041333 | 55 | 210 | 0.0 | 0.0 | 0.00 | 4.96 | 0.01 | 84 | 1013.2 |
| 20260510040824 | 55 | 210 | 0.0 | 0.0 | 0.00 | 4.96 | 0.01 | 84 | 1013.1 |
| 20260510040325 | 55 | 210 | 0.0 | 0.9 | 0.00 | 4.96 | 0.01 | 84 | 1013.1 |
| 20260510035836 | 55 | 210 | 0.0 | 1.7 | 0.00 | 4.96 | 0.01 | 84 | 1013.1 |
| 20260510035326 | 55 | 210 | 0.0 | 1.7 | 0.00 | 4.96 | 0.01 | 84 | 1013.1 |
| 20260510034837 | 55 | 210 | 0.0 | 0.0 | 0.00 | 4.96 | 0.01 | 84 | 1013.2 |
| 20260510034327 | 55 | 210 | 0.0 | 0.0 | 0.00 | 4.96 | 0.01 | 85 | 1013.1 |
| 20260510033838 | 55 | 210 | 0.0 | 0.0 | 0.00 | 4.96 | 0.01 | 85 | 1013.0 |
| 20260510033333 | 55 | 210 | 0.0 | 0.0 | 0.00 | 4.96 | 0.01 | 85 | 1013.0 |
| 20260510032823 | 55 | 210 | 0.0 | 0.0 | 0.00 | 4.96 | 0.01 | 84 | 1012.9 |
| 20260510032334 | 55 | 210 | 0.0 | 0.0 | 0.00 | 4.96 | 0.01 | 84 | 1012.9 |
| 20260510031831 | 55 | 210 | 0.0 | 0.0 | 0.00 | 4.96 | 0.01 | 84 | 1012.9 |
| 20260510031321 | 55 | 210 | 0.0 | 1.7 | 0.00 | 4.96 | 0.01 | 84 | 1012.9 |
| 20260510030831 | 55 | 210 | 0.9 | 1.7 | 0.00 | 4.96 | 0.01 | 84 | 1012.8 |
| 20260510030326 | 55 | 210 | 0.9 | 3.5 | 0.00 | 4.96 | 0.01 | 85 | 1012.9 |
| 20260510025831 | 55 | 210 | 0.9 | 3.5 | 0.00 | 4.96 | 0.01 | 85 | 1012.9 |
| 20260510025326 | 55 | 210 | 0.0 | 0.0 | 0.00 | 4.96 | 0.01 | 85 | 1013.0 |
| 20260510024836 | 55 | 210 | 0.0 | 0.0 | 0.00 | 4.96 | 0.01 | 84 | 1013.0 |
| 20260510024327 | 55 | 210 | 0.0 | 0.0 | 0.00 | 4.96 | 0.01 | 84 | 1013.0 |
| 20260510023820 | 55 | 210 | 0.0 | 1.7 | 0.00 | 4.96 | 0.01 | 84 | 1013.0 |
| 20260510023333 | 55 | 210 | 0.0 | 1.7 | 0.00 | 4.96 | 0.01 | 84 | 1013.0 |
| 20260510022827 | 55 | 210 | 0.9 | 1.7 | 0.04 | 4.96 | 0.01 | 84 | 1013.0 |
| 20260510022341 | 55 | 210 | 0.0 | 1.7 | 0.04 | 4.96 | 0.01 | 84 | 1013.0 |
| 20260510021828 | 56 | 210 | 0.0 | 1.7 | 0.04 | 4.96 | 0.01 | 85 | 1013.0 |
| 20260510021326 | 56 | 210 | 0.0 | 1.7 | 0.04 | 4.96 | 0.01 | 84 | 1013.0 |
| 20260510020840 | 56 | 210 | 0.0 | 1.7 | 0.04 | 4.96 | 0.01 | 84 | 1013.1 |
| 20260510020346 | 56 | 210 | 0.0 | 0.0 | 0.04 | 4.96 | 0.01 | 84 | 1013.0 |
| 20260510015836 | 56 | 210 | 0.0 | 0.9 | 0.04 | 4.96 | 0.01 | 84 | 1013.1 |
| 20260510015327 | 56 | 210 | 0.0 | 2.6 | 0.04 | 4.96 | 0.01 | 84 | 1012.9 |
| 20260510014840 | 56 | 210 | 0.9 | 2.6 | 0.04 | 4.96 | 0.01 | 84 | 1012.9 |
| 20260510014334 | 56 | 210 | 0.0 | 0.0 | 0.04 | 4.96 | 0.01 | 84 | 1013.1 |
| 20260510013844 | 57 | 210 | 0.0 | 0.0 | 0.04 | 4.96 | 0.01 | 84 | 1013.0 |
| 20260510013335 | 57 | 210 | 0.0 | 0.9 | 0.04 | 4.96 | 0.01 | 84 | 1013.1 |
| 20260510012832 | 57 | 210 | 0.0 | 2.6 | 0.00 | 4.92 | 0.00 | 84 | 1013.1 |
| 20260510012326 | 57 | 210 | 0.0 | 3.5 | 0.00 | 4.92 | 0.00 | 84 | 1013.1 |
| 20260510011837 | 57 | 210 | 0.9 | 3.5 | 0.00 | 4.92 | 0.00 | 84 | 1013.0 |
| 20260510011327 | 57 | 210 | 0.9 | 2.6 | 0.00 | 4.92 | 0.00 | 84 | 1013.1 |
| 20260510010838 | 57 | 210 | 0.9 | 3.5 | 0.00 | 4.92 | 0.00 | 84 | 1013.1 |
| 20260510010328 | 57 | 210 | 0.9 | 3.5 | 0.00 | 4.92 | 0.00 | 84 | 1013.2 |
| 20260510005822 | 57 | 210 | 0.9 | 2.6 | 0.00 | 4.92 | 0.00 | 84 | 1013.1 |
| 20260510005335 | 57 | 210 | 0.9 | 2.6 | 0.00 | 4.92 | 0.00 | 84 | 1013.2 |
| 20260510004829 | 57 | 210 | 0.9 | 2.6 | 0.00 | 4.92 | 0.00 | 84 | 1013.3 |
| 20260510004326 | 57 | 210 | 0.0 | 2.6 | 0.00 | 4.92 | 0.00 | 84 | 1013.4 |
| 20260510003839 | 57 | 210 | 0.0 | 2.6 | 0.00 | 4.92 | 0.00 | 84 | 1013.4 |
| 20260510003330 | 57 | 210 | 0.9 | 2.6 | 0.00 | 4.92 | 0.00 | 84 | 1013.5 |
| 20260510002826 | 57 | 210 | 0.0 | 0.9 | 0.00 | 4.92 | 0.00 | 84 | 1013.6 |
| 20260510002337 | 57 | 210 | 0.0 | 0.9 | 0.00 | 4.92 | 0.00 | 84 | 1013.7 |
| 20260510001827 | 58 | 210 | 0.0 | 2.6 | 0.00 | 4.92 | 0.00 | 84 | 1013.7 |
| 20260510001338 | 58 | 210 | 0.0 | 2.6 | 0.00 | 4.92 | 0.00 | 84 | 1013.7 |
| 20260510000835 | 58 | 210 | 0.0 | 0.9 | 0.00 | 4.92 | 0.00 | 84 | 1013.7 |
| 20260510000348 | 58 | 210 | 0.0 | 0.9 | 0.00 | 4.92 | 0.00 | 84 | 1013.8 |
| 20260509235836 | 58 | 210 | 0.0 | 0.9 | 0.00 | 4.92 | 0.00 | 84 | 1013.8 |
| 20260509235327 | 58 | 210 | 0.0 | 0.9 | 0.00 | 4.92 | 0.00 | 84 | 1013.9 |
| 20260509234839 | 58 | 210 | 0.0 | 0.0 | 0.00 | 4.92 | 0.00 | 84 | 1013.9 |
| 20260509234333 | 58 | 210 | 0.0 | 0.0 | 0.00 | 4.92 | 0.00 | 84 | 1013.9 |
| 20260509233844 | 59 | 210 | 0.0 | 0.0 | 0.00 | 4.92 | 0.00 | 84 | 1013.9 |
| 20260509233334 | 59 | 210 | 0.0 | 1.7 | 0.00 | 4.92 | 0.00 | 84 | 1014.0 |
| 20260509232832 | 59 | 210 | 0.0 | 0.9 | 0.00 | 4.92 | 0.00 | 84 | 1013.9 |
| 20260509232342 | 59 | 210 | 0.0 | 0.9 | 0.00 | 4.92 | 0.00 | 84 | 1014.0 |
| 20260509231833 | 59 | 210 | 0.0 | 0.0 | 0.00 | 4.92 | 0.00 | 84 | 1013.9 |
| 20260509231325 | 59 | 210 | 0.0 | 0.0 | 0.00 | 4.92 | 0.00 | 84 | 1013.9 |
| 20260509230836 | 59 | 210 | 0.0 | 0.0 | 0.00 | 4.92 | 0.00 | 84 | 1014.0 |
| 20260509230330 | 59 | 210 | 0.0 | 0.0 | 0.00 | 4.92 | 0.00 | 84 | 1013.9 |
| 20260509225840 | 59 | 210 | 0.0 | 0.9 | 0.00 | 4.92 | 0.00 | 84 | 1013.9 |
| 20260509225331 | 59 | 210 | 0.0 | 1.7 | 0.00 | 4.92 | 0.00 | 84 | 1013.9 |
| 20260509224828 | 59 | 210 | 0.9 | 1.7 | 0.00 | 4.92 | 0.00 | 84 | 1013.8 |
| 20260509224325 | 59 | 210 | 0.0 | 4.3 | 0.00 | 4.92 | 0.00 | 84 | 1013.9 |
| 20260509223835 | 59 | 210 | 0.0 | 5.2 | 0.00 | 4.92 | 0.00 | 84 | 1013.8 |
| 20260509223326 | 58 | 227 | 2.6 | 5.2 | 0.00 | 4.92 | 0.00 | 84 | 1013.8 |
| 20260509222836 | 58 | 360 | 0.0 | 1.7 | 0.00 | 4.92 | 0.00 | 84 | 1013.8 |
| 20260509222329 | 58 | 360 | 0.0 | 2.6 | 0.00 | 4.92 | 0.00 | 84 | 1013.8 |
| 20260509221826 | 58 | 360 | 0.0 | 1.7 | 0.00 | 4.92 | 0.00 | 84 | 1013.8 |
| 20260509221338 | 58 | 360 | 0.9 | 2.6 | 0.00 | 4.92 | 0.00 | 84 | 1013.8 |
| 20260509220836 | 58 | 360 | 0.9 | 2.6 | 0.00 | 4.92 | 0.00 | 84 | 1013.8 |
| 20260509220341 | 58 | 360 | 0.9 | 2.6 | 0.00 | 4.92 | 0.00 | 84 | 1013.9 |
| 20260509215832 | 59 | 360 | 0.0 | 0.9 | 0.00 | 4.92 | 0.98 | 84 | 1014.0 |
| 20260509215342 | 59 | 360 | 0.0 | 0.0 | 0.00 | 4.92 | 0.98 | 84 | 1014.1 |
| 20260509214835 | 59 | 360 | 0.0 | 1.7 | 0.00 | 4.92 | 0.98 | 84 | 1014.1 |
| 20260509214328 | 59 | 360 | 0.9 | 1.7 | 0.00 | 4.92 | 0.98 | 84 | 1014.0 |
| 20260509213842 | 59 | 360 | 0.9 | 2.6 | 0.00 | 4.92 | 0.98 | 84 | 1014.0 |
| 20260509213334 | 59 | 360 | 0.9 | 2.6 | 0.00 | 4.92 | 0.98 | 84 | 1014.0 |
| 20260509212829 | 59 | 360 | 0.0 | 1.7 | 0.00 | 4.92 | 0.98 | 84 | 1014.0 |
| 20260509212342 | 59 | 360 | 0.0 | 1.7 | 0.00 | 4.92 | 0.98 | 84 | 1014.0 |
| 20260509211833 | 59 | 360 | 0.9 | 1.7 | 0.00 | 4.92 | 0.98 | 84 | 1014.0 |
| 20260509211326 | 59 | 360 | 0.0 | 2.6 | 0.00 | 4.92 | 0.98 | 84 | 1014.0 |
| 20260509210837 | 59 | 360 | 0.0 | 2.6 | 0.00 | 4.92 | 0.98 | 84 | 1014.0 |
| 20260509210328 | 59 | 5 | 0.9 | 2.6 | 0.00 | 4.92 | 0.98 | 84 | 1013.9 |
| 20260509205840 | 59 | 5 | 0.0 | 0.0 | 0.00 | 4.92 | 0.98 | 84 | 1013.8 |
| 20260509205330 | 59 | 5 | 0.0 | 0.0 | 0.00 | 4.92 | 0.98 | 86 | 1013.7 |
| 20260509204830 | 59 | 5 | 0.0 | 0.0 | 0.00 | 4.92 | 0.98 | 84 | 1013.6 |
| 20260509204321 | 59 | 5 | 0.0 | 0.9 | 0.00 | 4.92 | 0.98 | 84 | 1013.7 |
| 20260509203834 | 59 | 5 | 0.0 | 0.9 | 0.00 | 4.92 | 0.98 | 84 | 1013.6 |
| 20260509203328 | 60 | 5 | 0.0 | 0.0 | 0.00 | 4.92 | 0.98 | 84 | 1013.6 |
| 20260509202838 | 60 | 5 | 0.0 | 0.0 | 0.00 | 4.92 | 0.98 | 84 | 1013.5 |
| 20260509202329 | 60 | 5 | 0.0 | 0.0 | 0.00 | 4.92 | 0.98 | 84 | 1013.4 |
| 20260509201822 | 60 | 5 | 0.0 | 1.7 | 0.00 | 4.92 | 0.98 | 84 | 1013.5 |
| 20260509201332 | 60 | 5 | 0.0 | 2.6 | 0.00 | 4.92 | 0.98 | 84 | 1013.3 |
| 20260509200827 | 60 | 5 | 0.9 | 2.6 | 0.00 | 4.92 | 0.98 | 84 | 1013.1 |
| 20260509200320 | 60 | 5 | 0.0 | 0.9 | 0.00 | 4.92 | 0.98 | 84 | 1013.1 |
| 20260509195830 | 60 | 5 | 0.0 | 1.7 | 0.00 | 4.92 | 0.98 | 83 | 1013.0 |
| 20260509195326 | 60 | 5 | 0.0 | 2.6 | 0.00 | 4.92 | 0.98 | 83 | 1012.9 |
| 20260509194820 | 61 | 5 | 0.0 | 2.6 | 0.00 | 4.92 | 0.98 | 83 | 1012.7 |
| 20260509194332 | 61 | 5 | 0.0 | 0.9 | 0.00 | 4.92 | 0.98 | 83 | 1012.7 |
| 20260509193826 | 61 | 5 | 0.0 | 2.6 | 0.00 | 4.92 | 0.98 | 83 | 1012.6 |
| 20260509193327 | 61 | 5 | 0.9 | 2.6 | 0.00 | 4.92 | 0.98 | 83 | 1012.5 |
| 20260509192820 | 61 | 5 | 0.9 | 1.7 | 0.00 | 4.92 | 0.98 | 83 | 1012.4 |
| 20260509192330 | 61 | 5 | 0.9 | 1.7 | 0.00 | 4.92 | 0.98 | 83 | 1012.5 |
| 20260509191821 | 62 | 5 | 0.0 | 0.0 | 0.00 | 4.92 | 0.98 | 83 | 1012.6 |
| 20260509191331 | 62 | 5 | 0.0 | 0.0 | 0.00 | 4.92 | 0.98 | 83 | 1012.5 |
| 20260509190821 | 62 | 5 | 0.0 | 0.0 | 0.00 | 4.92 | 0.98 | 83 | 1012.5 |
| 20260509190332 | 62 | 5 | 0.0 | 0.0 | 0.00 | 4.92 | 0.98 | 83 | 1012.4 |
| 20260509185825 | 62 | 5 | 0.0 | 0.0 | 0.00 | 4.92 | 0.98 | 83 | 1012.5 |
| 20260509185323 | 62 | 5 | 0.0 | 0.0 | 0.00 | 4.92 | 0.98 | 83 | 1012.3 |
| 20260509184833 | 62 | 5 | 0.0 | 0.0 | 0.00 | 4.92 | 0.98 | 82 | 1012.3 |
| 20260509184323 | 62 | 5 | 0.0 | 0.0 | 0.00 | 4.92 | 0.98 | 82 | 1012.3 |
| 20260509183833 | 62 | 5 | 0.0 | 0.9 | 0.00 | 4.92 | 0.98 | 82 | 1012.2 |
| 20260509183327 | 63 | 5 | 0.0 | 0.9 | 0.00 | 4.92 | 0.98 | 82 | 1012.2 |
| 20260509182838 | 63 | 5 | 0.0 | 0.0 | 0.00 | 4.92 | 0.98 | 82 | 1012.1 |
| 20260509182328 | 63 | 5 | 0.0 | 0.0 | 0.00 | 4.92 | 0.98 | 81 | 1011.9 |
| 20260509181838 | 63 | 5 | 0.0 | 0.0 | 0.00 | 4.92 | 0.98 | 81 | 1011.9 |
| 20260509181329 | 63 | 5 | 0.0 | 1.7 | 0.00 | 4.92 | 0.98 | 81 | 1011.9 |
| 20260509180826 | 63 | 5 | 0.0 | 2.6 | 0.00 | 4.92 | 0.98 | 81 | 1011.8 |
| 20260509180319 | 64 | 5 | 0.0 | 3.5 | 0.00 | 4.92 | 0.98 | 81 | 1011.9 |
| 20260509175833 | 64 | 5 | 1.7 | 3.5 | 0.00 | 4.92 | 0.98 | 80 | 1011.8 |
| 20260509175326 | 64 | 5 | 0.9 | 3.5 | 0.00 | 4.92 | 0.98 | 80 | 1011.8 |
| 20260509174836 | 64 | 5 | 0.0 | 3.5 | 0.00 | 4.92 | 0.98 | 80 | 1011.7 |
| 20260509174326 | 64 | 5 | 0.0 | 3.5 | 0.00 | 4.92 | 0.98 | 80 | 1011.6 |
| 20260509173839 | 65 | 5 | 0.9 | 3.5 | 0.00 | 4.92 | 0.98 | 80 | 1011.7 |
| 20260509173330 | 65 | 5 | 0.9 | 3.5 | 0.00 | 4.92 | 0.98 | 79 | 1011.6 |
| 20260509172830 | 65 | 5 | 0.9 | 2.6 | 0.00 | 4.92 | 0.98 | 79 | 1011.6 |
| 20260509172323 | 65 | 5 | 0.0 | 4.3 | 0.00 | 4.92 | 0.98 | 80 | 1011.5 |
| 20260509171836 | 65 | 5 | 0.0 | 4.3 | 0.00 | 4.92 | 0.98 | 80 | 1011.4 |
| 20260509171330 | 65 | 5 | 0.0 | 2.6 | 0.00 | 4.92 | 0.98 | 80 | 1011.6 |
| 20260509170820 | 65 | 5 | 0.0 | 4.3 | 0.00 | 4.92 | 0.98 | 80 | 1011.5 |
| 20260509170331 | 65 | 5 | 0.9 | 6.1 | 0.00 | 4.92 | 0.98 | 79 | 1011.6 |
| 20260509165322 | 66 | 355 | 0.9 | 3.5 | 0.00 | 4.92 | 0.98 | 80 | 1011.4 |
| 20260509164832 | 66 | 355 | 0.9 | 5.2 | 0.00 | 4.92 | 0.98 | 79 | 1011.4 |
| 20260509164329 | 65 | 355 | 1.7 | 5.2 | 0.00 | 4.92 | 0.98 | 80 | 1011.3 |
| 20260509163822 | 65 | 360 | 0.9 | 4.3 | 0.00 | 4.92 | 0.98 | 79 | 1011.3 |
| 20260509163332 | 65 | 360 | 0.0 | 7.0 | 0.00 | 4.92 | 0.98 | 79 | 1011.2 |
| 20260509162823 | 65 | 355 | 0.9 | 7.0 | 0.00 | 4.92 | 0.98 | 78 | 1011.3 |